Location: Barnston
(51.8500°N, 0.4000°E)
Time: 12:41:56
(UTC+00:00)

CZ-2D R/B - Pass Details

Date: 26 September 2023
Orbit: 790 x 844 km, 98.8° (Epoch: 28 November)

Event Time Altitude Azimuth Distance (km) Brightness Sun altitude
Rises 03:17:53 0° 9° (N) 3,413 5.9 -23.3°
Reaches altitude 10° 03:20:32 10° 359° (N) 2,469 5.0 -23.0°
Maximum altitude 03:25:09 29° 302° (WNW) 1,500 3.2 -22.3°
Enters shadow 03:25:19 29° 298° (WNW) 1,501 3.2 -22.3°
